Flag for U.S.A. Weather past 2 weeks in Moreno Valley, California, U.S.A.

Now
43 °F

Clear.


Feels Like: 43 °F
Forecast: 48 / 81 °F
Wind: No wind

Location: Riverside / March Air Force Base

Current Time: Apr 18, 2015 at 6:29:32 AM

Latest Report: Apr 18, 2015 at 5:58 AM


Visibility: 10 mi

Pressure: 30.00 "Hg

Humidity: 41%

Dew point: 21 °F

Location of Moreno ValleyLocation

Historic Weather in Moreno Valley — Graph

°F

Moreno Valley temperature yesterday

Maximum temperature yesterday: 83 °F (at 3:58 PM)
Minimum temperature yesterday: 42 °F (at 3:58 AM)
Average temperature yesterday: 63 °F

Past Weeks' High & Low Weather Summary

 TemperatureHumidityPressure
High83 °F (Apr 17, 3:58 PM)100% (Apr 5, 4:58 AM)30.10 "Hg (Apr 5, 4:58 AM)
Low36 °F (Apr 7, 4:58 AM)6% (Apr 3, 4:58 PM)29.79 "Hg (Apr 5, 4:58 PM)
Average60 °F49%29.96 "Hg
* Reported Apr 3 4:58 AM — Apr 18 4:58 AM, Moreno Valley, Weather by CustomWeather, © 2015

Note: Actual official high and low records may vary slightly from our data, if they occured in-between our weather recording intervals... More about our weather records

Advertising

Moreno Valley weather history for previous 24 hours

 ConditionsComfort  
Time TempWeatherWind HumidityBarometerVisibility
4:58 AM
Sat, Apr 18
42 °FClear.No wind40%29.99 "Hg10 mi
3:58 AM46 °FClear.No wind40%29.99 "Hg10 mi
2:58 AM47 °FClear.No wind40%30.00 "Hg10 mi
1:58 AM48 °FClear.No wind39%30.01 "Hg10 mi
12:58 AM48 °FClear.No wind34%30.02 "Hg10 mi
11:58 PM
Fri, Apr 17
54 °FClear.No wind33%30.02 "Hg10 mi
10:58 PM54 °FClear.3 mph31%30.02 "Hg10 mi
9:58 PM60 °FClear.No wind25%30.01 "Hg10 mi
8:58 PM64 °FClear.8 mph21%30.00 "Hg10 mi
7:58 PM68 °FSunny.9 mph17%29.98 "Hg10 mi
6:58 PM72 °FSunny.14 mph16%29.96 "Hg10 mi
5:58 PM77 °FSunny.18 mph14%29.93 "Hg10 mi
4:58 PM80 °FSunny.18 mph11%29.93 "Hg10 mi
3:58 PM83 °FSunny.15 mph9%29.93 "Hg10 mi
2:58 PM83 °FSunny.9 mph7%29.95 "Hg10 mi
1:58 PM83 °FSunny.13 mph7%29.97 "Hg10 mi
12:58 PM81 °FSunny.14 mph8%29.99 "Hg10 mi
11:58 AM80 °FSunny.14 mph8%30.01 "Hg10 mi
10:58 AM76 °FSunny.5 mph11%30.02 "Hg10 mi
9:58 AM70 °FSunny.3 mph14%30.03 "Hg10 mi
8:58 AM62 °FSunny.3 mph23%30.04 "Hg10 mi
7:58 AM55 °FSunny.1 mph31%30.05 "Hg10 mi
6:58 AM45 °FClear.No wind37%30.04 "Hg10 mi
Weather by CustomWeather, © 2015

See weather overviewHow to use our weather pages